Home   Weather   Birmingham   Past weeks

Flag for United Kingdom Past Weather in Birmingham, England, United Kingdom — Yesterday and Last 2 Weeks

52 °F

Passing clouds.

Feels Like: 51 °F
Forecast: 48 / 58 °F
Wind: 3 mph from South

Location: Birmingham / Airport

Current Time: Oct 25, 2016 at 8:12:08 PM

Latest Report: Oct 25, 2016 at 7:20 PM

Visibility: 6 mi

Pressure: 30.24 "Hg

Humidity: 94%

Dew Point: 50 °F

Location of BirminghamLocation

Past Weather in Birmingham — Graph


Birmingham Temperature Yesterday

Maximum temperature yesterday: 54 °F (at 2:20 PM)
Minimum temperature yesterday: 43 °F (at 12:50 AM)
Average temperature yesterday: 49 °F

High & Low Weather Summary for the Past Weeks

High61 °F (Oct 16, 1:20 PM)100% (Oct 10, 9:20 PM)30.30 "Hg (Oct 10, 9:20 PM)
Low39 °F (Oct 23, 2:50 AM)54% (Oct 18, 1:50 PM)29.62 "Hg (Oct 15, 6:50 AM)
Average50 °F88%30.02 "Hg
* Reported Oct 10 6:20 PM — Oct 25 6:50 PM, Birmingham, Weather by CustomWeather, © 2016

Note: Actual official high and low records may vary slightly from our data, if they occured in-between our weather recording intervals... More about our weather records


Birmingham Weather History for the Previous 24 Hours

Scroll right to see more
Time TempWeatherWind HumidityBarometerVisibility
6:50 PM
Tue, Oct 25
52 °FPassing clouds.No wind94%30.24 "Hg6 mi
6:20 PM52 °FPartly cloudy.2 mph94%30.24 "Hg5 mi
5:50 PM52 °FPassing clouds.3 mph94%30.24 "Hg5 mi
5:20 PM52 °FBroken clouds.3 mph94%30.21 "Hg6 mi
4:50 PM54 °FPartly sunny.5 mph88%30.21 "Hg6 mi
4:20 PM54 °FPartly sunny.6 mph82%30.21 "HgN/A
3:50 PM54 °FPartly sunny.7 mph82%30.21 "HgN/A
3:20 PM54 °FBroken clouds.7 mph82%30.21 "HgN/A
2:50 PM54 °FPartly sunny.7 mph82%30.21 "HgN/A
2:20 PM54 °FScattered clouds.6 mph82%30.21 "Hg6 mi
1:50 PM54 °FScattered clouds.5 mph82%30.21 "Hg5 mi
1:20 PM52 °FScattered clouds.3 mph88%30.21 "Hg4 mi
12:50 PM52 °FScattered clouds.3 mph88%30.21 "Hg4 mi
12:20 PM52 °FClear.5 mph88%30.21 "Hg5 mi
11:50 AM52 °FClear.No wind88%30.21 "Hg5 mi
11:20 AM50 °FClear.2 mph88%30.21 "Hg4 mi
10:50 AM48 °FClear.2 mph94%30.21 "Hg5 mi
10:20 AM48 °FClear.2 mph94%30.21 "Hg5 mi
9:50 AM46 °FFog.2 mph100%30.21 "Hg3 mi
9:20 AM45 °FFog.3 mph100%30.18 "Hg3 mi
8:50 AM45 °FFog.3 mph100%30.18 "Hg3 mi
8:20 AM45 °FFog.2 mph100%30.18 "Hg3 mi
7:50 AM45 °FFog.3 mph100%30.15 "Hg3 mi
7:20 AM45 °FClear.5 mph100%30.15 "Hg4 mi
6:50 AM45 °FClear.3 mph100%30.15 "Hg4 mi
6:20 AM45 °FClear.5 mph100%30.15 "Hg4 mi
5:50 AM45 °FClear.3 mph100%30.12 "Hg6 mi
5:20 AM45 °FClear.No wind100%30.12 "Hg6 mi
4:50 AM45 °FClear.3 mph100%30.12 "Hg5 mi
4:20 AM45 °FClear.2 mph100%30.12 "Hg5 mi
3:50 AM45 °FClear.2 mph100%30.12 "Hg6 mi
3:20 AM46 °FClear.3 mph100%30.12 "Hg6 mi
2:50 AM46 °FClear.2 mph100%30.12 "Hg6 mi
2:20 AM46 °FClear.2 mph100%30.09 "Hg10 mi
1:50 AM46 °FClear.2 mph100%30.09 "Hg10 mi
1:20 AM46 °FClear.3 mph93%30.09 "Hg10 mi
12:50 AM46 °FClear.3 mph93%30.09 "Hg10 mi
12:20 AM48 °FClear.5 mph94%30.07 "Hg10 mi
11:50 PM
Mon, Oct 24
48 °FClear.5 mph87%30.07 "Hg10 mi
11:20 PM48 °FClear.5 mph87%30.07 "Hg10 mi
10:50 PM50 °FPassing clouds.6 mph82%30.07 "HgN/A
10:20 PM50 °FClear.7 mph82%30.04 "Hg10 mi
9:50 PM50 °FClear.7 mph82%30.04 "Hg10 mi
9:20 PM50 °FClear.7 mph82%30.04 "Hg10 mi
8:50 PM50 °FClear.8 mph82%30.04 "Hg10 mi
8:20 PM50 °FClear.6 mph88%30.01 "Hg10 mi
Weather by CustomWeather, © 2016

See weather overviewHow to use our weather pages